Tracking 19638 objects as of 20-May-2019
HD Live streaming from Space Station
objects crossing your sky now

MOZHAYETS 4

Track MOZHAYETS 4 now!
10-day predictions
MOZHAYETS 4 is classified as:


NORAD ID: 27939
Int'l Code: 2003-042A
Perigee: 669.0 km
Apogee: 688.0 km
Inclination: 98.0 °
Period: 98.2 minutes
Semi major axis: 7049 km
RCS: 0.7646 m2 (medium)
Launch date: September 27, 2003
Source: Commonwealth of Independent States (former USSR) (CIS)
Launch site: PLESETSK MISSILE AND SPACE COMPLEX (PKMTR)

Uplink (MHz):
Downlink (MHz): 432.098/435.352
Beacon (MHz):
Mode:
Call sign:
Status: Active

aabbcc
Your satellite tracking list
Your tracking list is empty




NASA's NSSDC Master Catalog

Two Line Element Set (TLE):
1 27939U 03042A   19140.50999043  .00000114  00000-0  28973-4 0  9992
2 27939  98.0352 276.9021 0013442 154.7615 205.4252 14.66779263836265
Source of the keplerian elements: Caltech